Temperature
16 16 16 16 16 16 16 16 15 15 15 14 14 14 14 14 14 13 13 13 13 13 12 12 12 12 12 12 12 12 12 11 11 11 11 11 12 12 12 12 12 11 11
16 16 16 16 16 15 15 15 15 14 14 14 14 14 14 14 14 13 13 13 13 12 12 12 12 12 12 12 11 11 11 11 11 11 11 11 11 11 11 11 11 11 11
15 15 15 15 15 15 14 14 14 14 14 14 14 13 13 13 13 13 13 13 12 12 12 12 12 12 11 11 11 11 11 11 11 11 11 10 10 10 10 10 10 10 10
14 14 15 14 14 14 14 14 14 14 13 13 13 13 13 13 13 13 13 13 12 12 12 12 11 11 11 11 11 11 11 11 10 10 10 10 10 10 10 10 10 10 10
14 14 14 14 14 14 14 13 13 13 13 13 13 13 13 13 13 13 13 13 12 12 12 11 11 11 11 11 11 11 11 10 10 10 10 10 10 10 10 10 10 9 9
14 14 14 14 14 14 13 13 13 13 13 13 13 13 13 13 13 13 13 12 12 12 11 11 11 11 11 10 10 10 10 10 10 10 10 10 10 9 9 9 9 9 9
14 14 14 14 14 14 14 13 13 13 13 13 12 12 13 13 13 13 13 12 12 11 11 11 11 11 10 10 10 10 9 9 9 9 9 9 9 9 9 9 9 9 9
14 14 14 14 14 14 14 14 13 13 13 12 12 11 11 12 12 12 12 12 11 11 11 11 10 10 10 9 9 9 9 9 9 9 9 9 9 9 9 9 9 8 8
14 14 14 14 14 14 14 14 13 13 13 12 12 11 11 11 11 11 11 11 11 10 10 10 10 9 9 9 9 8 8 8 8 8 8 8 8 8 9 9 9 8 8
14 14 14 14 14 14 14 14 13 13 12 12 12 11 10 10 10 10 10 10 10 10 9 9 9 9 8 8 8 8 8 8 8 8 8 8 8 8 8 8 8 8 8
14 14 14 14 14 14 14 13 13 12 12 12 11 11 10 10 9 9 9 9 9 9 9 8 8 8 8 7 7 7 7 7 7 7 7 7 7 8 8 8 8 8 8
14 14 14 14 13 13 13 13 12 12 12 11 11 10 9 9 9 9 8 9 8 8 8 8 8 7 7 7 7 7 6 6 6 6 6 6 7 7 7 7 7 7 8
14 14 13 13 13 13 12 12 12 11 11 10 10 9 9 9 8 8 8 8 8 7 7 7 7 7 7 6 6 6 6 6 6 6 6 6 6 6 7 7 7 7 7
13 13 13 13 12 12 12 11 11 11 10 9 9 9 8 8 8 8 7 7 7 7 7 6 6 6 6 6 5 5 5 5 5 5 5 5 6 6 6 6 6 6 6
12 12 12 12 12 11 11 11 10 10 9 9 8 8 7 7 7 7 7 6 6 6 6 6 5 5 5 5 4 4 4 5 4 5 5 5 5 5 5 5 5 5 6
12 12 11 11 11 10 10 10 9 8 8 7 7 7 7 6 6 6 6 6 6 6 5 5 5 4 4 4 4 4 4 4 4 4 4 4 4 4 4 4 5 5 5
11 11 11 10 10 9 9 8 8 7 7 6 6 6 6 6 6 5 5 5 5 5 4 4 4 4 4 3 3 3 3 3 3 3 3 3 3 3 4 4 4 4 4
10 10 10 9 9 8 8 7 6 6 5 5 5 5 5 5 5 5 5 5 4 4 4 4 3 3 3 3 3 3 3 3 2 2 2 2 2 3 3 3 3 3 3
9 9 9 8 8 7 6 5 5 5 4 4 4 4 4 4 4 4 4 4 4 4 4 3 3 3 2 2 2 2 2 2 2 2 2 2 2 2 2 2 3 3 3
9 8 8 7 6 5 5 4 4 4 4 4 4 3 3 3 3 3 3 3 3 3 3 3 2 2 2 2 1 1 1 1 1 1 1 1 1 1 2 2 2 2 2
8 7 6 5 4 4 4 3 3 3 3 3 3 3 3 3 3 3 2 3 2 2 2 2 2 1 1 1 1 0 0 0 1 1 0 0 1 1 1 1 1 1 1
7 6 5 4 3 3 2 2 2 2 2 2 2 2 2 2 2 2 2 2 2 2 2 1 1 1 1 0 -0 -0 -0 -0 -0 -0 -0 -0 -0 0 0 0 0 0 1
5 4 3 3 2 2 2 1 2 2 2 2 1 1 1 1 1 1 1 1 1 1 1 1 1 0 -0 -0 -1 -1 -1 -1 -1 -1 -1 -0 -1 -1 -1 -0 -0 -0 -0
4 3 2 2 1 1 1 1 1 1 1 1 1 1 1 1 1 1 1 1 1 1 1 1 0 -0 -1 -1 -1 -1 -1 -1 -1 -1 -1 -1 -1 -1 -1 -1 -1 -1 -1
3 2 1 1 1 0 0 0 1 1 1 0 1 1 0 0 0 0 0 1 1 0 0 -0 -0 -1 -1 -1 -1 -1 -1 -1 -1 -1 -2 -2 -2 -1 -1 -2 -2 -2 -2
2 1 1 0 0 0 0 0 0 0 0 0 0 0 0 0 0 0 0 0 -0 -0 -0 -1 -1 -1 -1 -1 -1 -2 -2 -2 -2 -2 -2 -2 -2 -2 -2 -2 -2 -3 -3
Wind_Speed
7 8 8 9 9 9 8 7 6 6 7 7 7 7 7 7 7 7 8 11 13 13 12 11 11 10 9 9 8 8 7 7 7 6 5 3 2 2 2 2 3 4 4
10 7 6 7 8 10 10 9 7 5 4 4 4 5 5 6 6 7 9 10 13 15 15 13 11 10 10 9 9 9 9 10 9 9 8 7 6 4 3 3 2 2 3
11 8 5 5 7 8 8 7 5 3 2 2 3 4 5 6 7 8 9 10 11 13 14 13 11 9 9 9 9 9 9 10 11 11 11 10 9 8 7 5 5 4 3
11 8 4 4 6 5 5 3 2 2 2 2 3 3 4 6 7 9 10 10 10 9 9 10 8 7 6 6 7 8 8 7 10 12 12 13 12 12 10 9 8 7 6
11 8 5 5 5 3 2 2 2 2 3 3 4 4 4 5 6 8 8 9 8 6 5 4 4 3 2 4 6 7 8 7 6 9 12 13 14 14 14 13 11 10 9
10 8 6 5 4 2 2 2 3 3 3 3 4 5 5 6 5 5 6 6 4 4 4 4 3 2 3 4 5 7 8 9 8 7 8 10 13 15 16 15 15 14 12
8 7 4 3 3 2 3 3 2 3 3 2 2 4 4 5 5 5 3 2 1 3 5 5 6 6 6 8 8 8 9 9 9 9 8 8 10 12 15 17 17 16 15
7 6 4 2 2 2 2 2 1 1 2 2 2 2 4 4 3 3 2 1 1 3 4 6 7 8 8 8 9 9 9 10 10 10 9 8 8 10 12 15 17 18 17
7 6 5 3 2 2 2 2 2 2 3 2 3 3 3 3 3 3 3 2 2 3 3 6 7 9 9 9 9 9 10 10 10 10 10 9 9 9 9 12 14 17 18
6 6 5 4 2 1 1 1 1 2 2 3 2 3 4 4 3 3 2 2 3 3 3 4 7 8 9 9 9 9 10 10 10 10 10 9 9 9 8 9 10 12 16
5 5 5 4 2 1 1 0 0 1 2 3 3 2 3 3 4 4 3 1 2 3 4 4 6 7 9 9 9 10 11 11 11 11 10 9 9 9 9 8 9 9 12
2 4 5 4 3 2 1 0 1 1 2 2 2 3 3 3 3 4 5 3 2 2 4 4 4 6 8 9 10 11 12 12 13 12 11 10 10 9 9 8 7 8 9
2 2 2 2 1 1 0 0 1 1 1 2 2 2 2 2 2 2 3 3 2 2 3 3 4 5 7 9 9 10 11 12 13 13 14 13 12 10 9 8 6 4 5
3 3 3 2 1 0 0 0 1 1 1 1 1 1 1 1 1 1 2 3 3 2 2 3 2 4 6 8 8 9 10 11 11 12 13 13 13 12 9 7 6 5 3
3 4 3 2 1 1 0 0 0 1 0 0 0 0 1 1 1 1 0 1 3 4 3 3 2 2 4 7 7 8 9 10 11 12 13 13 13 13 12 10 9 8 7
4 4 3 2 1 0 1 1 0 1 1 1 1 2 2 1 2 2 1 1 0 2 2 2 2 2 3 4 6 7 8 9 10 11 12 13 14 15 15 14 12 10 9
4 3 3 3 2 1 1 1 1 1 2 2 2 3 3 2 2 2 2 2 2 1 2 2 2 2 2 2 4 6 7 8 9 10 11 12 13 14 14 14 14 13 12
4 3 3 3 2 2 1 1 2 2 2 2 3 3 3 3 3 3 3 3 2 2 2 3 2 2 2 2 2 2 4 6 7 8 9 10 10 11 11 12 12 12 12
4 3 3 3 3 2 1 1 2 3 3 3 3 4 3 4 3 3 3 2 2 2 2 3 2 2 2 2 2 2 3 4 6 8 8 8 9 9 9 9 9 10 10
5 4 3 3 3 2 2 2 3 4 4 5 4 4 4 4 4 3 2 2 2 2 2 3 2 2 2 2 2 1 1 2 3 6 8 7 8 8 8 8 8 8 8
5 5 4 4 3 3 2 3 3 4 5 5 5 4 4 5 5 4 2 2 2 2 2 2 2 2 1 1 1 0 1 1 2 3 3 5 6 6 7 7 6 5 5
5 5 5 5 4 3 4 5 4 4 5 5 5 4 3 4 5 5 6 5 4 2 2 2 2 2 2 2 1 1 1 1 2 2 3 3 4 3 5 5 5 4 4
5 5 4 5 4 4 6 6 6 5 5 5 5 4 2 3 4 4 5 6 6 5 3 4 3 3 3 3 3 2 1 1 2 2 2 2 3 3 4 7 6 3 3
5 5 5 5 5 5 7 7 8 5 5 4 4 4 4 3 3 4 3 3 3 3 3 3 4 3 3 3 3 3 2 1 1 2 1 1 3 3 4 7 6 4 4
5 4 5 6 6 5 8 8 8 4 4 4 3 4 5 4 5 6 5 3 2 1 2 5 5 4 4 5 5 3 2 2 0 1 2 1 2 3 3 3 6 6 6
5 5 5 5 6 6 9 10 9 4 4 3 3 3 6 6 6 6 5 4 4 2 1 1 2 2 2 2 2 4 4 3 1 1 2 1 2 3 3 3 3 6 6
Wind_Direction
179 187 198 204 211 216 224 235 244 255 263 261 253 249 256 264 268 264 257 246 241 240 242 244 245 247 248 244 243 237 228 223 216 208 202 194 180 153 112 92 82 75 76
179 183 192 202 211 216 221 225 230 237 247 250 251 253 262 274 279 275 267 261 253 250 249 250 253 255 258 259 258 252 238 228 223 217 212 209 204 200 189 168 138 115 100
182 180 182 195 211 215 216 221 232 229 240 254 270 277 278 282 283 279 274 267 263 259 255 254 256 260 267 275 278 275 261 240 228 223 219 215 212 210 207 197 185 172 154
187 179 179 199 213 211 206 207 216 233 257 266 274 281 281 283 281 277 275 270 264 261 256 248 251 262 279 293 299 301 296 273 245 232 225 221 217 214 211 206 201 194 187
185 181 186 204 209 204 210 215 219 214 245 263 270 275 276 272 272 277 274 270 260 247 231 225 228 249 302 326 325 325 327 323 294 253 238 230 223 218 215 212 207 203 198
187 183 187 198 196 188 216 230 239 235 234 251 274 279 273 270 270 269 266 266 255 218 189 169 151 124 66 42 23 8 356 350 340 315 268 246 235 226 220 217 213 208 204
185 180 182 191 185 193 219 228 232 247 252 240 280 296 291 282 287 285 264 239 194 158 143 135 127 114 89 70 53 35 17 3 353 344 325 286 258 241 231 223 218 212 208
164 163 162 161 161 191 219 229 218 241 251 208 213 284 309 326 327 345 356 116 120 112 108 114 114 105 96 82 63 49 30 9 353 344 335 319 291 265 247 234 226 218 211
147 147 149 150 158 181 210 226 211 213 245 252 210 215 241 261 302 326 9 38 69 88 89 99 100 100 96 82 62 45 30 12 355 343 333 324 316 293 268 247 235 225 216
129 130 131 133 131 144 189 236 213 216 221 248 252 232 225 216 239 292 330 17 47 67 72 84 89 89 87 78 63 48 33 16 360 346 335 328 321 314 296 265 246 234 223
117 120 120 112 106 107 104 40 314 252 223 231 231 239 247 240 225 227 254 281 39 45 59 72 81 83 77 70 60 48 35 19 6 355 345 336 332 327 317 297 263 245 232
101 103 109 108 106 101 87 351 296 282 263 250 239 226 223 226 220 215 229 223 197 85 60 56 64 74 72 66 58 47 34 23 12 6 1 359 350 338 329 319 289 257 238
148 139 118 120 115 113 163 276 263 273 269 255 245 236 230 236 229 215 219 219 200 157 108 62 43 65 68 63 54 45 35 25 16 12 13 13 6 353 338 328 319 286 233
155 154 148 142 138 153 192 332 273 272 265 259 269 247 216 266 268 227 214 200 204 189 151 131 59 60 70 65 56 47 36 29 24 20 19 16 13 11 10 14 25 31 70
146 149 147 148 152 161 160 134 186 289 271 213 169 128 134 66 25 359 307 207 198 206 195 149 132 74 81 71 57 49 37 31 30 29 27 25 24 29 34 36 36 40 61
141 144 143 148 149 133 113 118 172 207 149 133 125 106 84 59 47 33 27 39 115 191 179 129 128 117 82 78 59 50 38 30 28 32 33 35 39 42 45 46 50 55 63
143 148 152 153 145 112 76 151 167 148 147 123 103 105 88 70 66 45 43 52 51 91 162 122 107 117 109 82 53 43 38 31 22 29 34 38 40 43 44 45 49 53 60
140 146 143 138 126 105 76 154 153 138 145 138 116 109 99 88 73 56 60 62 56 46 131 144 124 125 112 97 68 40 33 31 21 22 32 37 38 41 43 45 48 52 55
144 139 135 139 129 114 96 116 131 123 120 114 110 112 109 105 87 71 67 66 48 46 65 122 125 112 100 87 70 34 35 20 21 21 27 30 30 34 39 44 48 52 53
152 150 145 143 136 126 119 125 128 121 110 99 95 98 99 106 110 102 83 71 71 79 85 108 114 108 95 79 85 57 18 8 8 12 16 19 20 28 34 40 45 50 50
160 155 148 148 144 142 150 146 143 139 130 115 100 92 95 107 116 117 105 85 92 105 109 113 120 116 110 99 112 51 34 342 352 6 352 360 6 17 22 28 35 40 39
160 158 164 164 165 170 173 174 164 149 143 137 127 107 94 84 93 95 94 91 102 125 144 138 142 150 150 148 128 99 85 36 310 341 3 341 5 1 359 1 4 16 16
170 171 173 169 171 177 183 183 174 148 144 147 148 147 132 115 93 81 81 67 59 71 110 149 155 165 165 176 154 138 151 184 249 303 355 328 349 339 339 347 345 355 13
179 181 181 174 171 186 189 181 162 137 139 150 158 161 152 146 158 143 122 95 66 51 83 102 139 157 167 171 171 169 174 187 303 344 28 327 335 324 326 342 359 23 31
183 184 179 174 173 183 184 173 153 139 149 163 173 176 171 177 190 166 147 142 125 48 108 134 144 160 168 172 163 126 116 92 360 334 10 26 337 324 317 319 354 14 13
182 177 179 181 179 186 192 186 172 159 168 182 194 200 195 197 202 177 162 165 177 200 166 114 90 82 66 77 132 149 151 143 169 263 334 41 5 2 337 314 330 350 358
Height
1563 1565 1566 1567 1568 1568 1569 1569 1569 1569 1569 1569 1569 1568 1568 1567 1567 1566 1565 1565 1564 1563 1562 1561 1560 1558 1557 1556 1555 1554 1553 1552 1551 1550 1549 1548 1547 1546 1545 1543 1543 1542 1541
1562 1564 1565 1565 1566 1567 1567 1568 1568 1568 1567 1567 1567 1567 1566 1565 1565 1564 1563 1562 1561 1560 1560 1559 1558 1557 1555 1554 1553 1552 1551 1550 1549 1548 1548 1547 1546 1545 1544 1543 1542 1542 1541
1561 1562 1563 1564 1564 1565 1565 1566 1566 1566 1566 1565 1565 1565 1564 1563 1562 1561 1560 1559 1558 1557 1557 1556 1555 1554 1553 1552 1551 1549 1548 1547 1547 1546 1546 1545 1545 1544 1543 1543 1542 1541 1540
1559 1560 1561 1562 1563 1563 1564 1564 1564 1564 1564 1563 1563 1562 1561 1560 1559 1558 1557 1555 1554 1554 1553 1552 1552 1551 1550 1549 1548 1547 1545 1544 1544 1543 1543 1543 1542 1542 1542 1542 1541 1540 1540
1558 1559 1560 1560 1561 1561 1562 1562 1562 1561 1561 1560 1559 1558 1557 1556 1555 1554 1552 1551 1550 1550 1549 1549 1549 1548 1547 1546 1545 1544 1543 1541 1540 1540 1539 1539 1539 1539 1540 1540 1540 1539 1539
1556 1557 1557 1558 1559 1559 1559 1559 1559 1558 1557 1557 1555 1554 1553 1552 1551 1549 1548 1547 1546 1546 1546 1546 1545 1545 1544 1543 1542 1541 1540 1538 1537 1536 1536 1536 1536 1536 1536 1537 1537 1537 1537
1553 1554 1555 1555 1556 1556 1556 1556 1555 1555 1554 1553 1551 1550 1549 1548 1546 1545 1544 1543 1543 1543 1543 1543 1542 1542 1541 1540 1539 1538 1536 1535 1534 1533 1532 1532 1532 1532 1532 1533 1533 1534 1534
1550 1551 1552 1553 1553 1553 1552 1552 1551 1550 1550 1549 1548 1546 1544 1543 1542 1542 1541 1541 1541 1540 1540 1539 1539 1539 1538 1537 1536 1534 1533 1532 1530 1529 1528 1528 1528 1528 1528 1529 1530 1530 1531
1547 1548 1549 1549 1549 1549 1548 1548 1547 1546 1545 1545 1544 1544 1543 1540 1540 1539 1539 1538 1538 1537 1537 1536 1536 1535 1534 1533 1532 1531 1529 1528 1527 1526 1525 1524 1524 1524 1524 1524 1525 1526 1527
1544 1545 1545 1545 1545 1545 1544 1543 1542 1541 1540 1539 1539 1539 1539 1538 1538 1536 1536 1535 1535 1534 1533 1533 1532 1531 1531 1530 1529 1527 1526 1524 1523 1522 1521 1520 1520 1520 1520 1520 1521 1522 1523
1540 1541 1541 1541 1541 1540 1540 1539 1537 1536 1535 1534 1534 1534 1533 1533 1533 1533 1532 1532 1531 1531 1530 1529 1528 1528 1527 1526 1525 1524 1522 1521 1520 1518 1517 1516 1515 1515 1515 1516 1517 1517 1519
1536 1537 1537 1537 1536 1536 1535 1534 1532 1531 1530 1529 1529 1528 1528 1528 1527 1528 1528 1527 1527 1527 1526 1525 1525 1524 1524 1523 1522 1520 1519 1518 1516 1515 1514 1512 1511 1511 1511 1511 1512 1513 1514
1532 1533 1533 1532 1532 1530 1529 1528 1527 1526 1525 1524 1524 1523 1523 1523 1523 1523 1523 1523 1523 1522 1522 1521 1521 1521 1520 1520 1519 1518 1516 1515 1514 1512 1511 1509 1508 1507 1507 1507 1508 1509 1510
1529 1529 1528 1528 1527 1525 1524 1523 1522 1521 1520 1519 1519 1518 1518 1517 1518 1518 1518 1519 1518 1518 1518 1517 1517 1517 1517 1516 1516 1515 1513 1512 1511 1510 1508 1507 1505 1504 1504 1504 1504 1505 1506
1524 1524 1523 1522 1521 1520 1519 1518 1517 1516 1515 1514 1514 1513 1513 1512 1512 1512 1513 1513 1515 1514 1514 1514 1514 1513 1513 1513 1513 1512 1511 1510 1508 1507 1506 1505 1504 1503 1502 1502 1502 1503 1504
1519 1519 1518 1517 1516 1515 1514 1512 1512 1511 1510 1510 1509 1509 1508 1508 1507 1507 1508 1508 1509 1510 1510 1510 1510 1510 1510 1510 1509 1509 1508 1507 1506 1505 1505 1504 1502 1501 1501 1501 1501 1502 1503
1514 1514 1513 1512 1511 1510 1508 1507 1507 1506 1506 1505 1505 1504 1504 1504 1503 1503 1503 1504 1504 1505 1506 1506 1507 1506 1507 1506 1506 1506 1505 1504 1504 1503 1503 1502 1501 1501 1501 1500 1500 1501 1502
1510 1509 1508 1507 1505 1504 1503 1503 1502 1502 1501 1501 1500 1500 1500 1500 1499 1499 1499 1500 1500 1501 1502 1502 1503 1503 1503 1503 1502 1502 1502 1501 1501 1501 1501 1501 1500 1500 1500 1500 1500 1500 1501
1505 1504 1503 1502 1500 1499 1499 1498 1498 1498 1498 1497 1497 1496 1496 1496 1496 1496 1496 1496 1496 1497 1498 1499 1499 1499 1499 1499 1499 1499 1499 1499 1499 1498 1498 1498 1498 1498 1498 1498 1498 1499 1499
1500 1499 1498 1497 1496 1495 1494 1494 1494 1494 1494 1494 1493 1493 1493 1493 1493 1493 1493 1493 1493 1493 1494 1495 1496 1496 1496 1496 1496 1496 1496 1496 1496 1495 1495 1495 1495 1495 1495 1496 1496 1496 1497
1495 1494 1493 1492 1491 1491 1490 1490 1490 1490 1490 1490 1490 1490 1490 1490 1490 1490 1490 1490 1490 1491 1491 1491 1492 1492 1493 1493 1493 1493 1493 1493 1493 1492 1492 1492 1493 1492 1492 1493 1493 1493 1493
1490 1489 1488 1488 1487 1487 1487 1487 1487 1487 1487 1487 1487 1487 1487 1487 1487 1487 1487 1487 1488 1488 1488 1488 1489 1489 1490 1490 1490 1490 1490 1490 1490 1490 1490 1490 1490 1489 1489 1489 1490 1490 1490
1485 1485 1484 1484 1484 1484 1484 1484 1484 1484 1484 1484 1485 1485 1485 1485 1485 1485 1485 1485 1485 1485 1486 1486 1486 1487 1487 1487 1487 1487 1487 1487 1487 1487 1487 1487 1487 1487 1487 1486 1486 1486 1487
1481 1481 1481 1480 1480 1480 1481 1481 1481 1481 1482 1482 1482 1482 1482 1483 1483 1483 1483 1483 1483 1483 1483 1483 1484 1484 1484 1485 1485 1485 1485 1485 1485 1485 1485 1485 1484 1484 1484 1484 1484 1484 1484
1477 1477 1477 1477 1477 1478 1478 1478 1478 1479 1479 1479 1480 1480 1480 1480 1481 1481 1481 1481 1481 1481 1481 1481 1481 1482 1482 1482 1482 1483 1483 1483 1483 1483 1483 1483 1482 1482 1482 1481 1481 1482 1482
1473 1473 1473 1474 1474 1475 1475 1475 1476 1476 1477 1477 1477 1478 1478 1478 1479 1478 1479 1479 1479 1479 1479 1479 1479 1479 1480 1480 1480 1480 1481 1481 1481 1481 1480 1481 1480 1480 1480 1480 1480 1479 1479